Location: Lancaster
(34.6980°N, 118.1360°W)
Time: 12:26:51
(UTC-08:00)

Hubble Space Telescope - Visible Passes

Search period start: 22 January 2018 00:00
Search period end: 01 February 2018 00:00
Orbit: 537 x 541 km, 28.5° (Epoch: 22 January)

Date Brightness Start Highest point End Pass type
(mag) Time Alt. Az. Time Alt. Az. Time Alt. Az.
22 Jan 2.8 19:17:13 10° SW 19:19:17 20° S 19:19:17 20° S visible
23 Jan 2.4 19:06:44 10° SW 19:09:42 25° S 19:09:42 25° S visible
24 Jan 2.0 18:56:16 10° SW 18:59:50 28° S 19:00:05 28° SSE visible
25 Jan 2.0 18:45:52 10° SW 18:49:31 31° S 18:50:29 27° SE visible
26 Jan 2.0 18:35:30 10° WSW 18:39:12 33° S 18:40:52 24° SE visible
27 Jan 1.9 18:25:09 10° WSW 18:28:53 34° S 18:31:17 18° ESE visible
27 Jan 3.8 20:06:12 10° WSW 20:06:39 12° WSW 20:06:39 12° WSW visible
28 Jan 2.0 18:14:50 10° WSW 18:18:36 34° S 18:21:43 14° ESE visible
28 Jan 3.5 19:56:01 10° WSW 19:57:05 16° WSW 19:57:05 16° WSW visible
29 Jan 2.1 18:04:32 10° WSW 18:08:18 34° S 18:12:02 10° ESE visible
29 Jan 3.2 19:45:52 10° WSW 19:47:34 18° SW 19:47:34 18° SW visible
30 Jan 2.2 17:54:16 10° WSW 17:57:58 32° S 18:01:41 10° ESE visible
30 Jan 3.1 19:35:48 10° WSW 19:38:07 18° SSW 19:38:07 18° SSW visible
31 Jan 2.3 17:44:00 10° WSW 17:47:40 31° S 17:51:18 10° SE visible
31 Jan 3.1 19:25:50 10° WSW 19:28:22 16° SSW 19:28:45 16° SSW visible
